Khartoum, Sudan

1:42 PM CAT on November 19, 2017 (GMT +0200)
Khartoum

Weather History for HSSS - April, 2014

Change the Weather History Date:

Tuesday, April 29, 2014

  Actual Average Record
Temperature  
Mean Temperature 94 °F -  
Max Temperature 104 °F 99 °F 111 °F (2011)
Min Temperature 85 °F 86 °F 82 °F (2004)
Cooling Degree Days 30    
Growing Degree Days 44 (Base 50)    
Moisture  
Dew Point 56 °F    
Average Humidity 28    
Maximum Humidity 43    
Minimum Humidity 18    
Precipitation  
Precipitation 0.00 in 0.01 in - ()
Sea Level Pressure  
Sea Level Pressure 29.81 in    
Wind  
Wind Speed 9 mph ()    
Max Wind Speed 28 mph    
Max Gust Speed -    
Visibility 6.1 miles    
Events      
Averages and records for this station are not official NWS values.
T = Trace of Precipitation, MM = Missing Value Source: Averaged Metar Reports

Daily Weather History Graph

Daily Weather History Graph

Search for Another Location

Airport or City:

Trip Planner

Search our weather history database for the weather conditions in past years. The results will help you decide how hot, cold, wet, or windy it might be!

Date:

Astronomy

Apr. 29, 2014 Rise Set
Actual Time 6:27 AM EAT 7:07 PM EAT
Civil Twilight 6:04 AM EAT 7:29 PM EAT
Nautical Twilight 5:38 AM EAT 7:55 PM EAT
Astronomical Twilight 5:12 AM EAT 8:22 PM EAT
Moon 6:28 AM EAT (4/29) 7:25 PM EAT (4/29)
Length of Visible Light 13h 24m
Length of Day
12h 40m
New Moon, 0% of the Moon is Illuminated
Apr 29
New Moon
May 7
First Quarter
May 14
Full
May 21
Last Quarter
May 28
New

Hourly Weather History & Observations

Time (EAT) Temp. Heat Index Dew Point Humidity Pressure Visibility Wind Dir Wind Speed Gust Speed Precip Events Conditions
12:00 AM 93 °F - 59 °F 22% 29.73 in 12 mi SSW 6.9 mph - -   Clear
12:00 AM 93.2 °F 92.6 °F 59.0 °F 32% 29.83 in - SSW 6.9 mph - N/A   Clear
12:30 AM - - - N/A% 29.83 in - WSW 8.1 mph - N/A   Clear
1:00 AM 93.2 °F 92.6 °F 59.0 °F 32% 29.83 in - WSW 8.1 mph - N/A   Clear
1:30 AM - - - N/A% 29.83 in - SW 8.1 mph - N/A   Clear
2:00 AM 91.4 °F 89.9 °F 57.2 °F 31% 29.83 in - SW 8.1 mph - N/A   Clear
2:30 AM - - - N/A% 29.80 in - SW 8.1 mph - N/A   Clear
3:00 AM 91 °F - 57 °F 22% 29.71 in 12 mi SW 8.1 mph - -  
3:00 AM 91.4 °F 89.9 °F 57.2 °F 31% 29.80 in - SW 8.1 mph - N/A   Clear
3:30 AM - - - N/A% 29.80 in - South 3.5 mph - N/A   Clear
4:00 AM 89.6 °F 88.9 °F 59.0 °F 36% 29.80 in - SW 6.9 mph - N/A   Clear
4:30 AM - - - N/A% 29.80 in - SSW 6.9 mph - N/A   Clear
5:00 AM 86.0 °F 86.1 °F 60.8 °F 43% 29.80 in - South 6.9 mph - N/A   Clear
5:30 AM - - - N/A% 29.80 in - South 5.8 mph - N/A   Clear
6:00 AM 86.0 °F 86.1 °F 60.8 °F 43% 29.80 in - WSW 5.8 mph - N/A   Clear
6:30 AM - - - N/A% 29.80 in - WNW 3.5 mph - N/A   Clear
7:00 AM 86.0 °F 86.1 °F 60.8 °F 43% 29.86 in 5.0 mi East 16.1 mph - N/A   Sand
7:30 AM - - - N/A% 29.89 in 5.0 mi ESE 16.1 mph - N/A   Sand
8:00 AM 86.0 °F 86.1 °F 60.8 °F 43% 29.86 in - SSW 16.1 mph - N/A   Clear
8:30 AM - - - N/A% 29.92 in 3.7 mi ESE 18.4 mph - N/A   Sand
9:00 AM 88 °F - 52 °F 19% 29.83 in 4 mi ESE 27.6 mph - -   Scattered Clouds
9:00 AM 87.8 °F 87.6 °F 60.8 °F 40% 29.92 in 3.7 mi ESE 27.6 mph - N/A   Sand
9:30 AM - - - N/A% 29.92 in 3.7 mi SE 23.0 mph - N/A   Sand
10:00 AM 89.6 °F 89.5 °F 60.8 °F 38% 29.92 in - SE 27.6 mph - N/A   Clear
10:30 AM - - - N/A% 29.92 in - SE 16.1 mph - N/A   Clear
11:00 AM 93.2 °F 92.6 °F 59.0 °F 32% 29.89 in - SE 18.4 mph - N/A   Clear
11:30 AM - - - N/A% 29.89 in - South 17.3 mph - N/A   Clear
12:00 PM 95.0 °F 94.4 °F 59.0 °F 30% 29.89 in - SSE 15.0 mph - N/A   Clear
12:30 PM - - - N/A% 29.86 in - South 10.4 mph - N/A   Clear
1:30 PM - - - N/A% 29.83 in - North - - N/A   Clear
2:00 PM 100.4 °F 98.4 °F 53.6 °F 21% 29.80 in - NE 6.9 mph - N/A   Clear
2:30 PM - - - N/A% 29.80 in - NE 5.8 mph - N/A   Clear
3:00 PM 102.2 °F 100.9 °F 55.4 °F 21% 29.77 in - NE 6.9 mph - N/A   Clear
3:30 PM - - - N/A% 29.77 in - NNE 3.5 mph - N/A   Clear
4:00 PM 104.0 °F 102.3 °F 53.6 °F 19% 29.77 in - NE 9.2 mph - N/A   Clear
5:00 PM 104.0 °F 102.3 °F 53.6 °F 19% 29.74 in - NE 8.1 mph - N/A   Clear
5:30 PM - - - N/A% 29.71 in - NE 10.4 mph - N/A   Clear
6:00 PM 102.2 °F - 51.8 °F 18% 29.74 in - NE 6.9 mph - N/A   Clear
6:30 PM - - - N/A% 29.74 in - NNE 9.2 mph - N/A   Clear
7:00 PM 102.2 °F - 51.8 °F 18% 29.74 in - NNE 6.9 mph - N/A   Clear
7:30 PM - - - N/A% 29.74 in - NNE 4.6 mph - N/A   Clear
8:00 PM 100.4 °F - 50.0 °F 18% 29.74 in - North 6.9 mph - N/A   Clear
8:30 PM - - - N/A% 29.74 in - NNE 9.2 mph - N/A   Clear
9:00 PM 100.4 °F - 50.0 °F 18% 29.77 in - NNE 9.2 mph - N/A   Clear
9:30 PM - - - N/A% 29.77 in - NNE 8.1 mph - N/A   Clear
10:00 PM 98.6 °F - 51.8 °F 21% 29.77 in - NNE 8.1 mph - N/A   Clear
10:30 PM - - - N/A% 29.80 in - NNE 10.4 mph - N/A   Clear
11:00 PM 98.6 °F - 51.8 °F 21% 29.80 in - NNE 9.2 mph - N/A   Clear
11:30 PM - - - N/A% 29.80 in - North 10.4 mph - N/A   Clear